• In Portugal
  • List of Countries
  • For 7 days
  • Water Temperature
  • Satellite Maps
  • Weather Map
  • Weather Widgets
  • user-avatar
    Login

    Hourly Weather Armawir

    Today, 16 July, Monday

    Time Temperature Precipitation Wind Pressure Humidity
    00:00 +22°C° 0.4 mm 3 mps 681 mmHg 70%
    01:00 +22°C° 0.3 mm 3 mps 681 mmHg 71%
    02:00 +21°C° 0.3 mm 2 mps 681 mmHg 72%
    03:00 +21°C° 0 mm 3 mps 681 mmHg 71%
    04:00 +21°C° 0.3 mm 3 mps 681 mmHg 70%
    05:00 +21°C° 0.3 mm 3 mps 681 mmHg 69%
    06:00 +21°C° 0.3 mm 2 mps 681 mmHg 69%
    07:00 +22°C° 0.5 mm 3 mps 682 mmHg 66%
    08:00 +24°C° 0.5 mm 3 mps 682 mmHg 62%
    09:00 +25°C° 0.5 mm 3 mps 682 mmHg 59%
    10:00 +25°C° 0.2 mm 2 mps 682 mmHg 56%
    11:00 +26°C° 0.2 mm 2 mps 682 mmHg 53%
    12:00 +27°C° 0.2 mm 2 mps 682 mmHg 50%
    13:00 +28°C° 0.1 mm 2 mps 682 mmHg 46%
    14:00 +29°C° 0.1 mm 2 mps 682 mmHg 41%
    15:00 +31°C° 0.1 mm 2 mps 682 mmHg 36%
    16:00 +30°C° 0 mm 2 mps 682 mmHg 37%
    17:00 +30°C° 0 mm 2 mps 682 mmHg 39%
    18:00 +30°C° 0 mm 2 mps 682 mmHg 40%
    19:00 +28°C° 0 mm 2 mps 682 mmHg 46%
    20:00 +26°C° 0 mm 3 mps 682 mmHg 53%
    21:00 +24°C° 0 mm 3 mps 682 mmHg 59%
    22:00 +22°C° 0.1 mm 3 mps 682 mmHg 62%
    23:00 +23°C° 0.1 mm 2 mps 682 mmHg 66%

    Tomorrow, 17 July, Tuesday

    Time Temperature Precipitation Wind Pressure Humidity
    00:00 +21°C° 0.1 mm 2 mps 682 mmHg 69%
    01:00 +21°C° 0.1 mm 2 mps 682 mmHg 70%
    02:00 +20°C° 0.1 mm 2 mps 683 mmHg 71%
    03:00 +20°C° 0.1 mm 2 mps 683 mmHg 72%
    04:00 +20°C° 0.1 mm 2 mps 683 mmHg 71%
    05:00 +21°C° 0.1 mm 2 mps 683 mmHg 69%
    06:00 +21°C° 0.1 mm 2 mps 683 mmHg 67%
    07:00 +24°C° 0.2 mm 2 mps 683 mmHg 60%
    08:00 +26°C° 0.2 mm 2 mps 683 mmHg 53%
    09:00 +27°C° 0.2 mm 2 mps 683 mmHg 46%
    10:00 +29°C° 0.3 mm 2 mps 683 mmHg 43%
    11:00 +30°C° 0.3 mm 2 mps 683 mmHg 39%
    12:00 +31°C° 0.3 mm 2 mps 683 mmHg 36%
    13:00 +32°C° 0.3 mm 2 mps 683 mmHg 34%
    14:00 +32°C° 0.3 mm 2 mps 683 mmHg 33%
    15:00 +34°C° 0.3 mm 2 mps 683 mmHg 32%
    16:00 +32°C° 0.1 mm 2 mps 683 mmHg 34%
    17:00 +33°C° 0.1 mm 3 mps 683 mmHg 35%
    18:00 +31°C° 0.1 mm 3 mps 683 mmHg 37%
    19:00 +29°C° 0 mm 3 mps 683 mmHg 44%
    20:00 +27°C° 0 mm 3 mps 683 mmHg 50%
    21:00 +25°C° 0 mm 3 mps 683 mmHg 57%
    22:00 +24°C° 0 mm 3 mps 683 mmHg 59%
    23:00 +23°C° 0 mm 2 mps 683 mmHg 62%

    Day after tomorrow, 18 July, Wednesday

    Time Temperature Precipitation Wind Pressure Humidity
    00:00 +21°C° 0 mm 2 mps 683 mmHg 64%
    01:00 +21°C° 0 mm 2 mps 683 mmHg 65%
    02:00 +20°C° 0 mm 2 mps 683 mmHg 66%
    03:00 +20°C° 0 mm 2 mps 683 mmHg 67%
    04:00 +21°C° 0 mm 2 mps 683 mmHg 66%
    05:00 +22°C° 0 mm 1 mps 683 mmHg 64%
    06:00 +23°C° 0 mm 1 mps 683 mmHg 63%
    07:00 +25°C° 0 mm 1 mps 683 mmHg 55%
    08:00 +27°C° 0 mm 2 mps 683 mmHg 47%
    09:00 +29°C° 0 mm 2 mps 683 mmHg 39%
    10:00 +31°C° 0 mm 2 mps 683 mmHg 36%
    11:00 +32°C° 0 mm 2 mps 683 mmHg 32%
    12:00 +35°C° 0 mm 2 mps 683 mmHg 28%
    13:00 +35°C° 0 mm 2 mps 682 mmHg 27%
    14:00 +36°C° 0 mm 2 mps 682 mmHg 25%
    15:00 +37°C° 0 mm 2 mps 682 mmHg 24%
    16:00 +36°C° 0 mm 2 mps 682 mmHg 26%
    17:00 +35°C° 0 mm 2 mps 682 mmHg 28%
    18:00 +35°C° 0 mm 2 mps 682 mmHg 31%
    19:00 +31°C° 0 mm 2 mps 682 mmHg 38%
    20:00 +29°C° 0 mm 2 mps 682 mmHg 45%
    21:00 +27°C° 0 mm 3 mps 682 mmHg 52%
    22:00 +26°C° 0 mm 2 mps 682 mmHg 55%
    23:00 +25°C° 0 mm 2 mps 682 mmHg 58%

    19 July, Thursday

    Time Temperature Precipitation Wind Pressure Humidity
    00:00 +25°C° 0 mm 2 mps 682 mmHg 61%
    01:00 +24°C° 0 mm 2 mps 682 mmHg 62%
    02:00 +24°C° 0 mm 2 mps 682 mmHg 63%
    03:00 +23°C° 0 mm 2 mps 682 mmHg 64%
    04:00 +24°C° 0 mm 2 mps 682 mmHg 63%
    05:00 +24°C° 0 mm 2 mps 683 mmHg 62%
    06:00 +25°C° 0 mm 2 mps 683 mmHg 61%
    07:00 +27°C° 0 mm 2 mps 683 mmHg 53%
    08:00 +29°C° 0 mm 2 mps 683 mmHg 44%
    09:00 +32°C° 0 mm 2 mps 683 mmHg 35%
    10:00 +34°C° 0 mm 2 mps 683 mmHg 31%
    11:00 +36°C° 0 mm 2 mps 683 mmHg 27%
    12:00 +37°C° 0 mm 2 mps 683 mmHg 23%
    13:00 +38°C° 0 mm 3 mps 683 mmHg 21%
    14:00 +39°C° 0 mm 3 mps 683 mmHg 20%
    15:00 +39°C° 0 mm 3 mps 682 mmHg 18%
    16:00 +38°C° 0 mm 2 mps 682 mmHg 20%
    17:00 +38°C° 0 mm 2 mps 682 mmHg 22%
    18:00 +37°C° 0 mm 2 mps 682 mmHg 24%
    19:00 +34°C° 0 mm 2 mps 682 mmHg 32%
    20:00 +31°C° 0 mm 2 mps 682 mmHg 39%
    21:00 +28°C° 0 mm 2 mps 682 mmHg 46%
    22:00 +27°C° 0 mm 2 mps 682 mmHg 50%
    23:00 +27°C° 0 mm 2 mps 682 mmHg 54%

    20 July, Friday

    Time Temperature Precipitation Wind Pressure Humidity
    00:00 +26°C° 0 mm 2 mps 682 mmHg 57%
    01:00 +25°C° 0 mm 2 mps 682 mmHg 59%
    02:00 +25°C° 0 mm 2 mps 682 mmHg 60%
    03:00 +24°C° 0 mm 2 mps 682 mmHg 62%
    04:00 +25°C° 0 mm 2 mps 682 mmHg 61%
    05:00 +25°C° 0 mm 2 mps 683 mmHg 61%
    06:00 +26°C° 0 mm 2 mps 683 mmHg 61%
    07:00 +28°C° 0 mm 2 mps 683 mmHg 52%
    08:00 +31°C° 0 mm 2 mps 683 mmHg 43%
    09:00 +34°C° 0 mm 2 mps 683 mmHg 34%
    10:00 +35°C° 0 mm 2 mps 683 mmHg 30%
    11:00 +37°C° 0 mm 2 mps 683 mmHg 25%
    12:00 +38°C° 0 mm 2 mps 683 mmHg 21%
    13:00 +39°C° 0 mm 2 mps 682 mmHg 20%
    14:00 +40°C° 0 mm 2 mps 682 mmHg 18%
    15:00 +40°C° 0 mm 3 mps 682 mmHg 17%
    16:00 +40°C° 0 mm 3 mps 682 mmHg 19%
    17:00 +39°C° 0 mm 3 mps 682 mmHg 22%
    18:00 +38°C° 0 mm 3 mps 682 mmHg 24%
    19:00 +35°C° 0 mm 3 mps 682 mmHg 33%
    20:00 +31°C° 0 mm 3 mps 682 mmHg 42%
    21:00 +28°C° 0 mm 3 mps 682 mmHg 51%
    22:00 +28°C° 0 mm 3 mps 682 mmHg 52%
    23:00 +27°C° 0 mm 3 mps 682 mmHg 53%

    21 July, Saturday

    Time Temperature Precipitation Wind Pressure Humidity
    00:00 +27°C° 0 mm 3 mps 682 mmHg 54%
    01:00 +26°C° 0 mm 3 mps 682 mmHg 57%
    02:00 +25°C° 0 mm 3 mps 682 mmHg 61%
    03:00 +25°C° 0 mm 3 mps 682 mmHg 64%
    04:00 +25°C° 0 mm 3 mps 682 mmHg 64%
    05:00 +25°C° 0 mm 3 mps 683 mmHg 65%
    06:00 +25°C° 0 mm 3 mps 683 mmHg 65%
    07:00 +27°C° 0 mm 2 mps 683 mmHg 58%
    08:00 +29°C° 0 mm 2 mps 683 mmHg 50%
    09:00 +32°C° 0 mm 2 mps 683 mmHg 43%
    10:00 +34°C° 0 mm 2 mps 683 mmHg 38%
    11:00 +36°C° 0 mm 2 mps 683 mmHg 33%
    12:00 +37°C° 0 mm 2 mps 683 mmHg 28%
    13:00 +38°C° 0 mm 2 mps 682 mmHg 26%
    14:00 +38°C° 0 mm 2 mps 682 mmHg 25%
    15:00 +39°C° 0 mm 3 mps 682 mmHg 23%
    16:00 +38°C° 0.2 mm 3 mps 682 mmHg 27%
    17:00 +37°C° 0.2 mm 4 mps 682 mmHg 30%
    18:00 +36°C° 0.2 mm 4 mps 682 mmHg 33%
    19:00 +34°C° 0.1 mm 4 mps 682 mmHg 40%
    20:00 +30°C° 0.1 mm 4 mps 682 mmHg 47%
    21:00 +28°C° 0.1 mm 3 mps 683 mmHg 54%
    22:00 +27°C° 0.3 mm 3 mps 683 mmHg 58%
    23:00 +27°C° 0.3 mm 3 mps 683 mmHg 61%
    Show more